"Pseudo-MPEC" for A118l9V

Created 2024 Jul 16 13:22:02 UT using Find_Orb

Click here for an explanation of pseudo-MPECs

 
 Astrometry: 
     A118l9V* C2024 07 11.45935720 40 39.146-10 19 39.07   ~7BEM 17.11oVNEOCPT08
     A118l9V  C2024 07 11.46120620 41 18.204-10 15 26.75   ~7BEM 17.07oVNEOCPT08
     A118l9V  C2024 07 11.46397720 42 16.930-10 09 06.88   ~7BEM 16.91oVNEOCPT08

Station data:
(T08) ATLAS-MLO, Mauna Loa  (N19.536150 W155.576050)  US/Hawaii.  Observers
   L. Denneau, A. Heinze, H. Weiland, J. Tonry, H. Flewelling, A.
   Fitzsimmons, D. Young, B. Stalder. Measurers L. Denneau, A. Heinze, J.
   Tonry. 0.5-m f/2.0 Schmidt + CCD.

Orbital elements:  A118l9V
   Perigee 2024 Jul 11.17754 +/- 35.3 TT =  4:15:39 (JD 2460502.67754)
Epoch 2024 Jul 11.0 TT = JDT 2460502.5                           AutoNEOCP
q266084.475 +/- 3.1e+7              (J2000 equator)
H   29.51 G 0.15                    Peri.  296.30241 +/- 60
                                    Node   333.02713 +/- 80
e  49.6812879 +/- 0.251             Incl.   23.79344 +/- 2.1
From 3 observations 2024 July 11 (6.7 min); mean residual 1".27
Residuals in arcseconds: 
240711 T08  1.4+  .54+    240711 T08  2.4-  .90-    240711 T08  .93+  .35+    

Ephemerides (geocentric):
Date (UTC) HH   RA             Dec           delta  r     elong  mag " sig PA
---- --------  ------------   ------------  ------ ------ -----  --- --------
2024 07 16 13  23 38 45.387   +09 13 27.24  .02661 1.0278 114.9 24.0  57d  95
2024 07 16 14  23 38 51.886   +09 14 05.38  .02681 1.0279 114.9 24.0  57d  95
2024 07 16 15  23 38 58.280   +09 14 42.89  .02702 1.0280 114.9 24.0  57d  95
2024 07 16 16  23 39 04.572   +09 15 19.77  .02723 1.0281 114.9 24.0  57d  95
2024 07 16 17  23 39 10.765   +09 15 56.04  .02743 1.0282 114.9 24.0  57d  95
2024 07 16 18  23 39 16.860   +09 16 31.72  .02764 1.0283 114.9 24.0  57d  95
2024 07 16 19  23 39 22.861   +09 17 06.82  .02784 1.0284 114.9 24.0  56d  95
2024 07 16 20  23 39 28.768   +09 17 41.35  .02805 1.0285 114.9 24.1  56d  95
2024 07 16 21  23 39 34.584   +09 18 15.33  .02825 1.0286 115.0 24.1  56d  95
2024 07 16 22  23 39 40.310   +09 18 48.75  .02846 1.0287 115.0 24.1  56d  95
2024 07 16 23  23 39 45.949   +09 19 21.65  .02866 1.0288 115.0 24.1  58d  95
2024 07 17 00  23 39 51.502   +09 19 54.02  .02887 1.0289 115.0 24.1  58d  95
2024 07 17 01  23 39 56.972   +09 20 25.88  .02907 1.0290 115.0 24.1  57d  95
2024 07 17 02  23 40 02.359   +09 20 57.24  .02928 1.0291 115.0 24.2  57d  95
2024 07 17 03  23 40 07.666   +09 21 28.11  .02948 1.0291 115.0 24.2  57d  95
2024 07 17 04  23 40 12.894   +09 21 58.50  .02969 1.0292 115.1 24.2  56d  95
2024 07 17 05  23 40 18.045   +09 22 28.42  .02989 1.0293 115.1 24.2  56d  95
2024 07 17 06  23 40 23.119   +09 22 57.88  .03010 1.0294 115.1 24.2  56d  95
2024 07 17 07  23 40 28.120   +09 23 26.88  .03030 1.0295 115.1 24.2  55d  95
2024 07 17 08  23 40 33.048   +09 23 55.44  .03051 1.0296 115.1 24.2  55d  94
2024 07 17 09  23 40 37.904   +09 24 23.57  .03071 1.0297 115.1 24.3  55d  94
2024 07 17 10  23 40 42.690   +09 24 51.26  .03092 1.0298 115.2 24.3  54d  94
2024 07 17 11  23 40 47.407   +09 25 18.55  .03112 1.0299 115.2 24.3  54d  94
2024 07 17 12  23 40 52.057   +09 25 45.41  .03133 1.0300 115.2 24.3  55d  94
2024 07 17 13  23 40 56.641   +09 26 11.88  .03153 1.0301 115.2 24.3  55d  94
2024 07 17 14  23 41 01.160   +09 26 37.95  .03174 1.0302 115.2 24.3  55d  94
2024 07 17 15  23 41 05.615   +09 27 03.64  .03194 1.0303 115.3 24.3  55d  94
2024 07 17 16  23 41 10.008   +09 27 28.94  .03215 1.0304 115.3 24.3  57d  94
2024 07 17 17  23 41 14.339   +09 27 53.87  .03235 1.0305 115.3 24.4  57d  94
2024 07 17 18  23 41 18.610   +09 28 18.43  .03256 1.0306 115.3 24.4  62d  95
2024 07 17 19  23 41 22.822   +09 28 42.64  .03276 1.0307 115.3 24.4  62d  95
2024 07 17 20  23 41 26.976   +09 29 06.49  .03297 1.0308 115.4 24.4  61d  95
2024 07 17 21  23 41 31.072   +09 29 29.99  .03317 1.0309 115.4 24.4  61d  95
2024 07 17 22  23 41 35.113   +09 29 53.15  .03338 1.0310 115.4 24.4  61d  95
2024 07 17 23  23 41 39.098   +09 30 15.98  .03358 1.0311 115.4 24.4  61d  95
2024 07 18 00  23 41 43.029   +09 30 38.47  .03379 1.0312 115.4 24.5  60d  95
2024 07 18 01  23 41 46.907   +09 31 00.64  .03399 1.0313 115.5 24.5  60d  95
2024 07 18 02  23 41 50.733   +09 31 22.50  .03420 1.0314 115.5 24.5  60d  95
2024 07 18 03  23 41 54.507   +09 31 44.04  .03441 1.0315 115.5 24.5  60d  95
2024 07 18 04  23 41 58.231   +09 32 05.27  .03461 1.0316 115.5 24.5  60d  95
2024 07 18 05  23 42 01.905   +09 32 26.20  .03482 1.0317 115.6 24.5  60d  95
2024 07 18 06  23 42 05.530   +09 32 46.84  .03502 1.0319 115.6 24.5  59d  95
2024 07 18 07  23 42 09.107   +09 33 07.18  .03523 1.0320 115.6 24.5  59d  95
2024 07 18 08  23 42 12.637   +09 33 27.24  .03543 1.0321 115.6 24.5  59d  95
2024 07 18 09  23 42 16.120   +09 33 47.01  .03564 1.0322 115.6 24.6  61d  95
2024 07 18 10  23 42 19.558   +09 34 06.50  .03584 1.0323 115.7 24.6  61d  95
2024 07 18 11  23 42 22.950   +09 34 25.72  .03605 1.0324 115.7 24.6  60d  95
2024 07 18 12  23 42 26.298   +09 34 44.67  .03625 1.0325 115.7 24.6  60d  95